sat.trackr.live / text

‹ back to catalog

GAOFEN-12 01

NORAD 44819 · 2019-082A

PAYLOAD ACTIVE UNKNOWN

§ Identity

Operator
Country
PRC
Launch date
2019-11-27
Launch site
TAISC
Launch vehicle
Mass (kg)
RCS (m²)

Purposes: earth_obs

External: N2YO · Heavens-Above · Gunter

§ Orbital elements

Epoch: 2026-05-25T04:00:51.048864Z

Period
97.27 min
Inclination
97.8105°
Eccentricity
0.0002491
Mean motion
14.80436108 rev/d
Perigee alt
626.2 km
Apogee alt
629.7 km
Semi-major
7,006.1 km
B*
4.5886e-5
RAAN
152.1549°
Arg perigee
98.5615°
Mean anomaly
261.5880°
Rev number
35,068

§ Raw data

GAOFEN-12 011 44819U 19082A   26145.16725751  .00000300  00000+0  45886-4 0  99952 44819  97.8105 152.1549 0002491  98.5615 261.5880 14.80436108350682

JSON: /api/v1/satellites/44819 · /tle

For live sub-satellite position, see the globe view (requires WebGL).

§ Visibility from observer

Set your observer location to see the next 7 days of passes ≥ 10°. The values pass through the URL so the page stays shareable.

No JS? Fill the form by hand. The geolocation button needs JavaScript.